K5RNB Weather Reports


Display with metric or nautical units.
time (UTC)temp
F
wind
direction
speed
MPH
gust
MPH
rain 1hr
in
rain 24hr
in
rain mn
in
humidity
%
barometer
mb
20260509053413 68 213 7.0 10.0 0.00 0.58 0.00 86 1008.5
20260509052415 68 233 5.0 8.0 0.00 0.58 0.00 86 1008.9
20260509051914 68 199 6.0 8.0 0.00 0.58 0.00 85 1008.7
20260509051414 69 191 5.0 7.0 0.00 0.58 0.00 85 1009.0
20260509050914 69 190 2.0 6.0 0.00 0.58 0.00 84 1009.3
20260509050414 70 173 5.0 6.0 0.00 0.58 0.00 84 1009.3
20260509045913 70 299 4.0 5.0 0.00 0.58 0.00 84 1009.6
20260509045413 70 299 3.0 5.0 0.00 0.58 0.58 84 1009.9
20260509044914 70 299 4.0 9.0 0.00 0.58 0.58 84 1010.2
20260509044413 70 301 3.0 10.0 0.00 0.58 0.58 84 1010.3
20260509043913 70 325 6.0 13.0 0.00 0.58 0.58 84 1010.4
20260509043413 70 336 9.0 13.0 0.00 0.58 0.58 84 1010.6
20260509042914 70 338 10.0 13.0 0.00 0.58 0.58 83 1010.7
20260509041915 70 224 1.0 3.0 0.00 0.58 0.58 83 1009.2
20260509041414 70 224 0.0 5.0 0.00 0.58 0.58 83 1009.1
20260509040914 70 224 3.0 5.0 0.00 0.58 0.58 83 1008.9
20260509035913 71 188 3.0 6.0 0.00 0.58 0.58 82 1008.8
20260509035414 71 137 3.0 6.0 0.00 0.58 0.58 82 1008.7
20260509033913 71 81 5.0 8.0 0.00 0.58 0.58 82 1008.6
20260509033414 71 137 1.0 13.0 0.00 0.58 0.58 82 1008.3
20260509032914 71 189 7.0 13.0 0.00 0.58 0.58 82 1007.8
20260509032415 71 183 7.0 10.0 0.00 0.58 0.58 82 1007.9
20260509031914 71 171 6.0 10.0 0.00 0.58 0.58 82 1008.1
20260509031414 71 168 5.0 12.0 0.00 0.58 0.58 82 1008.0
20260509030914 71 182 7.0 15.0 0.00 0.58 0.58 81 1007.9
20260509030415 71 162 9.0 15.0 0.00 0.58 0.58 81 1007.9
20260509025915 72 165 9.0 12.0 0.00 0.58 0.58 80 1008.3
20260509025414 73 136 4.0 8.0 0.00 0.58 0.58 80 1008.9
20260509024914 72 78 2.0 8.0 0.00 0.58 0.58 82 1009.3
20260509024414 72 48 5.0 9.0 0.00 0.58 0.58 81 1009.4
20260509023414 72 29 5.0 7.0 0.00 0.58 0.58 81 1009.0
20260509022914 72 28 5.0 6.0 0.00 0.58 0.58 81 1008.8
20260509022416 72 54 3.0 5.0 0.00 0.58 0.58 81 1008.5
20260509021916 72 48 3.0 5.0 0.00 0.58 0.58 81 1008.3
20260509021415 71 53 2.0 9.0 0.00 0.58 0.58 82 1007.9
20260509020415 71 143 5.0 9.0 0.00 0.58 0.58 82 1007.3
20260509015914 71 128 3.0 9.0 0.00 0.58 0.58 82 1007.1
20260509015414 71 128 3.0 10.0 0.00 0.58 0.58 81 1006.9
20260509014915 71 157 6.0 10.0 0.00 0.58 0.58 81 1006.6
20260509014415 72 156 5.0 8.0 0.00 0.58 0.58 80 1006.7
20260509013915 72 141 3.0 9.0 0.00 0.58 0.58 80 1006.9
20260509013414 72 135 5.0 12.0 0.00 0.58 0.58 80 1006.8
20260509012914 72 144 6.0 12.0 0.00 0.58 0.58 80 1006.8
20260509011415 73 145 5.0 12.0 0.00 0.58 0.58 78 1006.9
20260509010915 73 152 6.0 12.0 0.00 0.58 0.58 78 1006.9
20260509010415 73 160 8.0 12.0 0.00 0.58 0.58 77 1006.9
20260509005915 73 148 7.0 9.0 0.00 0.58 0.58 77 1007.1
20260509004915 74 145 6.0 10.0 0.00 0.58 0.58 77 1007.1
20260509004415 74 139 5.0 10.0 0.00 0.58 0.58 76 1007.1
20260509003916 74 148 6.0 10.0 0.00 0.58 0.58 76 1007.1
20260509003415 74 148 5.0 10.0 0.00 0.58 0.58 76 1007.1
20260509002915 74 159 6.0 10.0 0.00 0.58 0.58 76 1007.1
20260509001916 74 154 6.0 12.0 0.00 0.58 0.58 76 1006.8
20260509001415 74 162 8.0 15.0 0.00 0.58 0.58 75 1006.7
20260509000916 74 141 7.0 16.0 0.00 0.58 0.58 75 1006.6
20260509000417 75 157 10.0 16.0 0.00 0.58 0.58 75 1006.6
20260508235915 75 146 10.0 16.0 0.00 0.58 0.58 74 1006.5
20260508235415 75 154 11.0 16.0 0.00 0.58 0.58 74 1006.5
20260508234915 75 158 10.0 17.0 0.00 0.58 0.58 73 1006.5
20260508234415 75 162 10.0 17.0 0.00 0.58 0.58 73 1006.6
20260508233915 75 160 11.0 16.0 0.00 0.58 0.58 73 1006.7
20260508233415 75 154 10.0 15.0 0.00 0.58 0.58 72 1006.7
20260508232915 75 164 10.0 17.0 0.00 0.58 0.58 72 1006.8
20260508232415 76 147 9.0 17.0 0.00 0.58 0.58 72 1006.8
20260508231916 76 148 9.0 17.0 0.00 0.58 0.58 72 1006.9
20260508230916 76 151 9.0 13.0 0.00 0.58 0.58 72 1006.9
20260508230416 76 156 8.0 13.0 0.00 0.58 0.58 72 1007.1
20260508225917 76 164 7.0 13.0 0.00 0.58 0.58 72 1007.1
20260508224916 76 147 9.0 16.0 0.00 0.58 0.58 71 1007.0
20260508223916 76 188 10.0 16.0 0.00 0.58 0.58 71 1007.0
20260508222916 76 147 12.0 16.0 0.00 0.58 0.58 70 1007.2
20260508222415 76 137 10.0 15.0 0.00 0.58 0.58 70 1007.1
20260508221415 76 167 10.0 16.0 0.00 0.58 0.58 71 1007.1
20260508220916 76 166 10.0 15.0 0.00 0.58 0.58 70 1007.1
20260508220415 76 160 11.0 15.0 0.00 0.58 0.58 70 1007.2
20260508215916 76 152 10.0 18.0 0.00 0.58 0.58 70 1007.2
20260508215416 76 134 9.0 18.0 0.00 0.58 0.58 71 1007.1
20260508214916 76 168 9.0 17.0 0.00 0.58 0.58 71 1007.2
20260508214416 76 160 11.0 17.0 0.00 0.58 0.58 70 1007.2
20260508213916 76 193 10.0 15.0 0.00 0.58 0.58 71 1007.3
20260508213417 76 184 10.0 15.0 0.00 0.58 0.58 71 1007.3
20260508212917 76 176 7.0 15.0 0.00 0.58 0.58 70 1007.4
20260508212416 76 175 7.0 13.0 0.00 0.58 0.58 71 1007.4
20260508210916 76 151 10.0 15.0 0.00 0.58 0.58 72 1007.3
20260508210417 76 184 9.0 16.0 0.00 0.58 0.58 72 1007.4
20260508205916 76 189 11.0 17.0 0.00 0.58 0.58 70 1007.6
20260508205416 76 185 13.0 17.0 0.00 0.58 0.58 70 1007.8
20260508204916 77 206 11.0 20.0 0.00 0.58 0.58 71 1008.0
20260508204416 77 187 12.0 20.0 0.00 0.58 0.58 72 1008.1
20260508203917 77 178 9.0 20.0 0.00 0.58 0.58 71 1008.2
20260508203416 77 164 12.0 20.0 0.00 0.58 0.58 70 1008.3
20260508202917 77 172 14.0 20.0 0.00 0.58 0.58 70 1008.5
20260508201916 77 183 12.0 20.0 0.00 0.58 0.58 70 1008.7
20260508201417 77 152 9.0 18.0 0.00 0.58 0.58 70 1008.7
20260508195916 75 167 9.0 13.0 0.00 0.58 0.58 70 1008.9
20260508195416 75 151 9.0 13.0 0.00 0.58 0.58 71 1009.0
20260508194917 75 165 7.0 12.0 0.00 0.58 0.58 71 1009.2
20260508193917 76 152 5.0 12.0 0.00 0.58 0.58 70 1009.4
20260508193416 76 148 7.0 12.0 0.00 0.58 0.58 69 1009.4
20260508192917 76 161 5.0 12.0 0.00 0.58 0.58 70 1009.4
20260508191417 76 162 8.0 14.0 0.00 0.58 0.58 69 1009.5
20260508190917 76 152 7.0 14.0 0.00 0.58 0.58 69 1009.5
20260508185918 75 158 9.0 14.0 0.00 0.58 0.58 69 1009.8
20260508185417 75 177 8.0 14.0 0.00 0.58 0.58 70 1009.7
20260508184419 74 157 7.0 16.0 0.00 0.58 0.58 71 1009.8
20260508183917 74 171 7.0 16.0 0.00 0.58 0.58 69 1009.8
20260508182917 73 169 5.0 15.0 0.00 0.58 0.58 71 1010.0
20260508181918 74 171 4.0 12.0 0.00 0.58 0.58 72 1010.3
20260508181417 73 172 2.0 12.0 0.00 0.58 0.58 72 1010.4
20260508180918 73 215 4.0 15.0 0.00 0.58 0.58 71 1010.4
20260508180417 73 170 9.0 15.0 0.00 0.58 0.58 70 1010.7
20260508175417 73 171 8.0 12.0 0.00 0.58 0.58 72 1010.7
20260508174918 72 188 1.0 12.0 0.00 0.58 0.58 72 1010.9
20260508173417 72 166 7.0 12.0 0.00 0.58 0.58 71 1011.0
20260508172917 72 124 6.0 12.0 0.00 0.58 0.58 71 1011.1
20260508172418 72 142 5.0 12.0 0.00 0.58 0.58 71 1011.2
20260508171918 71 145 4.0 12.0 0.00 0.58 0.58 74 1011.3
20260508171417 71 160 6.0 12.0 0.00 0.58 0.58 73 1011.3
20260508170917 70 130 6.0 13.0 0.00 0.58 0.58 73 1011.5
20260508170418 70 152 8.0 13.0 0.00 0.58 0.58 72 1011.7
20260508165917 70 153 7.0 12.0 0.00 0.58 0.58 73 1011.8
20260508165418 70 179 7.0 13.0 0.00 0.58 0.58 75 1011.8
20260508164418 69 144 9.0 13.0 0.00 0.58 0.58 74 1012.1
20260508163918 69 174 5.0 12.0 0.00 0.58 0.58 76 1012.2
20260508162918 68 157 7.0 14.0 0.00 0.58 0.58 76 1012.5
20260508162418 68 149 8.0 12.0 0.00 0.58 0.58 75 1012.5
20260508161918 68 204 9.0 12.0 0.00 0.58 0.58 76 1012.5
20260508161417 68 174 9.0 14.0 0.00 0.58 0.58 75 1012.5
20260508160918 68 198 8.0 14.0 0.00 0.58 0.58 77 1012.5
20260508160418 67 192 9.0 15.0 0.00 0.58 0.58 77 1012.6
20260508155918 67 159 9.0 15.0 0.00 0.58 0.58 77 1012.7
20260508155418 67 182 9.0 13.0 0.00 0.58 0.58 77 1012.6
20260508154418 67 156 7.0 12.0 0.00 0.58 0.58 77 1012.8
20260508152920 66 198 6.0 13.0 0.00 0.58 0.58 80 1012.9
20260508152418 65 182 8.0 13.0 0.00 0.58 0.58 80 1013.0
20260508151918 65 176 7.0 12.0 0.00 0.58 0.58 81 1013.0
20260508151420 65 149 5.0 12.0 0.00 0.58 0.58 82 1013.2
20260508150918 65 168 6.0 10.0 0.00 0.58 0.58 82 1013.4
20260508150418 65 186 7.0 10.0 0.00 0.58 0.58 82 1013.6
20260508145918 65 179 6.0 12.0 0.00 0.58 0.58 82 1013.3
20260508145419 65 160 6.0 12.0 0.00 0.58 0.58 83 1013.4
20260508144918 65 166 5.0 14.0 0.00 0.58 0.58 85 1013.4
20260508144418 64 158 9.0 14.0 0.00 0.58 0.58 86 1013.3
20260508143919 63 166 6.0 12.0 0.00 0.58 0.58 87 1013.1
20260508143419 63 151 7.0 12.0 0.00 0.58 0.58 88 1013.2
20260508142918 63 143 5.0 8.0 0.00 0.58 0.58 89 1013.2
20260508142419 62 205 5.0 12.0 0.00 0.58 0.58 89 1013.6
20260508141418 62 164 5.0 9.0 0.00 0.58 0.58 89 1013.3
20260508140919 62 181 5.0 8.0 0.00 0.58 0.58 89 1013.4
20260508140418 62 183 4.0 7.0 0.00 0.58 0.58 89 1013.4
20260508135919 63 156 4.0 7.0 0.00 0.58 0.58 89 1013.5
20260508135418 63 101 0.0 3.0 0.00 0.58 0.58 90 1013.4
20260508134919 63 58 1.0 3.0 0.00 0.58 0.58 90 1013.5
20260508134419 62 50 2.0 3.0 0.00 0.58 0.58 90 1013.7
20260508133919 62 52 2.0 3.0 0.00 0.58 0.58 90 1013.7
20260508133419 61 64 2.0 3.0 0.00 0.58 0.58 90 1013.9
20260508132919 61 90 1.0 3.0 0.00 0.58 0.58 89 1013.9
20260508132419 61 139 0.0 0.0 0.00 0.58 0.58 90 1014.0
20260508131919 61 139 0.0 2.0 0.00 0.58 0.58 90 1013.9
20260508131419 61 139 0.0 2.0 0.00 0.58 0.58 90 1013.8
20260508130921 60 139 1.0 3.0 0.00 0.58 0.58 89 1013.8
20260508130418 60 139 0.0 3.0 0.00 0.58 0.58 90 1013.6
20260508125419 60 129 3.0 5.0 0.03 0.58 0.58 89 1013.4
20260508124919 60 159 3.0 5.0 0.04 0.58 0.58 90 1013.3
20260508124419 60 104 2.0 3.0 0.06 0.58 0.58 89 1013.2
20260508123921 60 134 2.0 3.0 0.07 0.58 0.58 89 1013.5
20260508123419 59 134 1.0 3.0 0.15 0.58 0.58 89 1013.8
20260508122920 59 134 2.0 6.0 0.27 0.58 0.58 90 1013.6
20260508122419 59 136 3.0 7.0 0.39 0.58 0.58 89 1013.6
20260508121920 59 165 4.0 7.0 0.40 0.58 0.58 89 1013.7
20260508120919 59 166 4.0 6.0 0.43 0.58 0.58 89 1013.4
20260508120419 59 136 2.0 3.0 0.43 0.58 0.58 89 1013.6
20260508115919 59 148 2.0 3.0 0.40 0.55 0.55 89 1013.9
20260508115420 59 123 2.0 3.0 0.40 0.55 0.55 89 1013.7
20260508114420 59 234 3.0 5.0 0.37 0.52 0.52 88 1014.1
20260508112919 59 207 8.0 12.0 0.16 0.31 0.31 88 1013.8
20260508112420 60 179 8.0 12.0 0.04 0.19 0.19 88 1013.4
20260508111421 60 205 6.0 9.0 0.01 0.15 0.15 88 1013.7
20260508110919 60 231 5.0 8.0 0.06 0.15 0.15 88 1013.7
20260508105920 60 170 3.0 8.0 0.07 0.15 0.15 88 1013.0
20260508105420 60 157 5.0 7.0 0.07 0.15 0.15 88 1012.8
20260508104920 60 144 4.0 7.0 0.12 0.15 0.15 88 1012.8
20260508104420 60 123 3.0 6.0 0.13 0.15 0.15 88 1013.1
20260508103920 60 192 3.0 8.0 0.13 0.15 0.15 88 1013.5
20260508103420 60 160 5.0 8.0 0.15 0.15 0.15 87 1013.1
20260508102920 60 174 5.0 7.0 0.15 0.15 0.15 87 1013.0
20260508102420 61 108 2.0 3.0 0.15 0.15 0.15 88 1012.7
20260508101921 61 273 0.0 3.0 0.15 0.15 0.15 88 1012.9
20260508101420 60 259 0.0 6.0 0.13 0.13 0.13 87 1013.2
20260508100920 60 266 2.0 6.0 0.09 0.09 0.09 87 1013.5
20260508100420 60 272 4.0 6.0 0.07 0.07 0.07 86 1013.6
20260508095920 61 95 0.0 3.0 0.07 0.07 0.07 87 1013.0
20260508095420 61 95 1.0 3.0 0.07 0.07 0.07 87 1012.6
20260508094420 61 117 0.0 1.0 0.01 0.01 0.01 86 1012.8
20260508093921 60 117 0.0 2.0 0.01 0.01 0.01 86 1012.9
20260508093420 60 117 1.0 2.0 0.00 0.00 0.00 86 1012.9
20260508092920 60 152 0.0 0.0 0.00 0.00 0.00 86 1012.8
20260508091420 60 137 3.0 6.0 0.00 0.00 0.00 85 1012.7
20260508090921 60 173 3.0 8.0 0.00 0.00 0.00 85 1012.8
20260508090421 60 189 4.0 9.0 0.00 0.00 0.00 85 1012.8
20260508085920 60 174 6.0 9.0 0.00 0.00 0.00 84 1012.7
20260508085420 60 200 7.0 9.0 0.00 0.00 0.00 84 1013.1
20260508084920 60 212 6.0 9.0 0.00 0.00 0.00 84 1013.1
20260508084421 60 177 7.0 9.0 0.00 0.00 0.00 84 1012.7
20260508083921 60 181 6.0 9.0 0.00 0.00 0.00 84 1012.9
20260508083421 60 192 6.0 9.0 0.00 0.00 0.00 84 1012.9
20260508082420 60 135 3.0 7.0 0.00 0.00 0.00 85 1013.0
20260508081921 60 159 3.0 6.0 0.00 0.00 0.00 85 1013.3
20260508081421 60 172 3.0 5.0 0.00 0.00 0.00 85 1013.3
20260508080920 59 171 3.0 5.0 0.00 0.00 0.00 85 1013.6
20260508080421 59 130 0.0 3.0 0.00 0.00 0.00 85 1013.6
20260508075921 59 130 1.0 5.0 0.00 0.00 0.00 85 1013.7
20260508075420 59 130 2.0 5.0 0.00 0.00 0.00 86 1013.3
20260508074921 59 158 3.0 5.0 0.00 0.00 0.00 86 1013.8
20260508074420 58 131 0.0 6.0 0.00 0.00 0.00 86 1014.0
20260508073921 58 136 4.0 6.0 0.00 0.00 0.00 86 1013.6
20260508073421 58 175 3.0 6.0 0.00 0.00 0.00 87 1014.2
20260508072421 57 193 3.0 5.0 0.00 0.00 0.00 87 1014.7
20260508071921 57 184 3.0 3.0 0.00 0.00 0.00 88 1014.6
20260508071421 57 184 0.0 0.0 0.00 0.00 0.00 88 1014.2
20260508070921 56 184 0.0 0.0 0.00 0.00 0.00 87 1014.2
20260508070421 56 184 0.0 0.0 0.00 0.00 0.00 87 1014.1
20260508065921 56 184 0.0 0.0 0.00 0.00 0.00 87 1014.2
20260508064922 56 184 0.0 0.0 0.00 0.00 0.00 87 1014.6
20260508064421 56 184 0.0 0.0 0.00 0.00 0.00 87 1014.6
20260508063922 56 184 0.0 0.0 0.00 0.00 0.00 87 1014.7
20260508063421 57 184 0.0 0.0 0.00 0.00 0.00 87 1014.6
20260508062422 56 184 0.0 0.0 0.00 0.00 0.00 87 1014.6
20260508061421 56 184 0.0 0.0 0.00 0.00 0.00 86 1015.0
20260508060922 57 184 0.0 0.0 0.00 0.00 0.00 86 1014.9
20260508060421 57 184 0.0 0.0 0.00 0.00 0.00 86 1014.9
20260508055921 57 184 0.0 0.0 0.00 0.00 0.00 86 1014.9
20260508055423 57 184 0.0 0.0 0.00 0.00 0.00 86 1014.9
20260508054921 58 184 0.0 0.0 0.00 0.00 0.00 86 1014.8
20260508054422 58 184 0.0 0.0 0.00 0.00 0.00 86 1014.7